TimeCDT,TemperatureF,Dew PointF,Humidity,Sea Level PressureIn,VisibilityMPH,Wind Direction,Wind SpeedMPH,Gust SpeedMPH,PrecipitationIn,Events,Conditions,WindDirDegrees,DateUTC
12:15 AM,54.0,45.5,73,30.17,10.0,North,-9999.0,-,N/A,,Clear,0,2014-04-19 05:15:00
12:35 AM,52.9,47.3,81,30.17,10.0,Calm,Calm,-,N/A,,Clear,0,2014-04-19 05:35:00
12:55 AM,51.1,46.9,86,30.17,10.0,North,-9999.0,-,N/A,,Clear,0,2014-04-19 05:55:00
1:15 AM,50.5,46.6,86,30.18,10.0,Calm,Calm,-,N/A,,Clear,0,2014-04-19 06:15:00
1:35 AM,49.1,46.0,89,30.17,10.0,North,-9999.0,-,N/A,,Clear,0,2014-04-19 06:35:00
1:55 AM,50.2,47.3,90,30.17,10.0,Calm,Calm,-,N/A,,Clear,0,2014-04-19 06:55:00
2:15 AM,50.9,46.9,86,30.17,10.0,Calm,Calm,-,N/A,,Clear,0,2014-04-19 07:15:00
2:35 AM,49.5,46.6,90,30.17,10.0,Calm,Calm,-,N/A,,Clear,0,2014-04-19 07:35:00
2:55 AM,48.7,46.8,93,30.17,10.0,Calm,Calm,-,N/A,,Clear,0,2014-04-19 07:55:00
3:15 AM,47.8,46.0,93,30.16,7.0,Calm,Calm,-,N/A,,Clear,0,2014-04-19 08:15:00
3:35 AM,48.6,46.0,91,30.16,7.0,North,-9999.0,-,N/A,,Clear,0,2014-04-19 08:35:00
3:55 AM,47.3,45.0,92,30.16,10.0,North,-9999.0,-,N/A,,Clear,0,2014-04-19 08:55:00
4:15 AM,48.7,46.2,91,30.16,7.0,Calm,Calm,-,N/A,,Clear,0,2014-04-19 09:15:00
4:35 AM,46.4,44.6,93,30.16,5.0,Calm,Calm,-,N/A,,Clear,0,2014-04-19 09:35:00
4:55 AM,46.8,44.8,93,30.17,7.0,Calm,Calm,-,N/A,,Clear,0,2014-04-19 09:55:00
5:15 AM,46.9,44.8,92,30.18,5.0,Calm,Calm,-,N/A,,Clear,0,2014-04-19 10:15:00
5:35 AM,46.6,44.1,91,30.18,10.0,North,-9999.0,-,N/A,,Clear,0,2014-04-19 10:35:00
5:55 AM,45.7,43.9,93,30.18,7.0,North,-9999.0,-,N/A,,Clear,0,2014-04-19 10:55:00
6:15 AM,45.3,43.7,94,30.18,1.8,North,-9999.0,-,N/A,,Mist,0,2014-04-19 11:15:00
6:35 AM,45.5,43.9,94,30.19,5.0,North,-9999.0,-,N/A,,Clear,0,2014-04-19 11:35:00
6:55 AM,44.8,43.5,95,30.19,1.0,Calm,Calm,-,N/A,,Mist,0,2014-04-19 11:55:00
7:15 AM,46.4,44.6,93,30.19,5.0,Calm,Calm,-,N/A,,Clear,0,2014-04-19 12:15:00
7:35 AM,46.8,44.6,92,30.20,7.0,North,-9999.0,-,N/A,,Clear,0,2014-04-19 12:35:00
7:55 AM,48.2,46.2,93,30.21,7.0,Calm,Calm,-,N/A,,Clear,0,2014-04-19 12:55:00
8:15 AM,50.5,47.8,90,30.21,7.0,North,-9999.0,-,N/A,,Clear,0,2014-04-19 13:15:00
8:35 AM,54.0,48.6,82,30.21,10.0,Calm,Calm,-,N/A,,Clear,0,2014-04-19 13:35:00
8:55 AM,55.9,50.0,80,30.22,10.0,Calm,Calm,-,N/A,,Clear,0,2014-04-19 13:55:00
9:15 AM,58.5,48.7,70,30.22,10.0,Calm,Calm,-,N/A,,Clear,0,2014-04-19 14:15:00
9:35 AM,61.3,50.0,66,30.22,10.0,North,-9999.0,-,N/A,,Clear,0,2014-04-19 14:35:00
9:55 AM,63.1,48.2,58,30.22,10.0,Calm,Calm,-,N/A,,Clear,0,2014-04-19 14:55:00
10:15 AM,65.3,47.5,52,30.22,10.0,Calm,Calm,-,N/A,,Clear,0,2014-04-19 15:15:00
10:35 AM,66.4,48.0,52,30.23,10.0,Calm,Calm,-,N/A,,Clear,0,2014-04-19 15:35:00
10:55 AM,68.4,47.3,47,30.22,10.0,Calm,Calm,-,N/A,,Clear,0,2014-04-19 15:55:00
11:15 AM,70.2,45.9,42,30.22,10.0,North,-9999.0,-,N/A,,Clear,0,2014-04-19 16:15:00
11:35 AM,70.7,45.3,40,30.22,10.0,North,-9999.0,-,N/A,,Clear,0,2014-04-19 16:35:00
11:55 AM,72.1,45.7,39,30.21,10.0,North,-9999.0,-,N/A,,Clear,0,2014-04-19 16:55:00
12:15 PM,72.3,45.3,38,30.21,10.0,North,-9999.0,-,N/A,,Clear,0,2014-04-19 17:15:00
12:35 PM,72.5,46.0,39,30.20,10.0,North,-9999.0,-,N/A,,Scattered Clouds,0,2014-04-19 17:35:00
12:55 PM,73.2,45.5,37,30.19,10.0,North,-9999.0,-,N/A,,Clear,0,2014-04-19 17:55:00
1:15 PM,73.9,45.5,36,30.17,10.0,North,-9999.0,-,N/A,,Clear,0,2014-04-19 18:15:00
1:35 PM,74.5,45.3,35,30.16,10.0,North,-9999.0,-,N/A,,Clear,0,2014-04-19 18:35:00
1:55 PM,74.7,45.1,35,30.16,10.0,Calm,Calm,-,N/A,,Clear,0,2014-04-19 18:55:00
2:15 PM,76.1,45.7,34,30.14,10.0,Calm,Calm,-,N/A,,Clear,0,2014-04-19 19:15:00
2:35 PM,75.9,45.1,33,30.14,10.0,NNW,3.5,-,N/A,,Clear,340,2014-04-19 19:35:00
2:55 PM,77.0,45.3,32,30.13,10.0,North,4.6,-,N/A,,Clear,360,2014-04-19 19:55:00
3:15 PM,77.9,42.4,28,30.12,10.0,Calm,Calm,-,N/A,,Clear,0,2014-04-19 20:15:00
3:35 PM,79.0,43.7,29,30.11,10.0,South,9.2,-,N/A,,Clear,190,2014-04-19 20:35:00
3:55 PM,79.3,43.3,28,30.11,10.0,South,6.9,-,N/A,,Clear,190,2014-04-19 20:55:00
4:15 PM,79.9,44.4,28,30.10,10.0,SW,9.2,-,N/A,,Clear,220,2014-04-19 21:15:00
4:35 PM,79.5,44.1,28,30.09,10.0,SSW,5.8,-,N/A,,Clear,210,2014-04-19 21:35:00
4:55 PM,79.7,42.6,27,30.09,10.0,South,5.8,-,N/A,,Clear,180,2014-04-19 21:55:00
5:15 PM,79.2,44.2,29,30.09,10.0,North,-9999.0,-,N/A,,Clear,0,2014-04-19 22:15:00
5:35 PM,79.2,44.8,30,30.09,10.0,North,-9999.0,-,N/A,,Clear,0,2014-04-19 22:35:00
5:55 PM,79.0,43.9,29,30.08,10.0,South,8.1,-,N/A,,Clear,180,2014-04-19 22:55:00
6:15 PM,78.4,45.0,30,30.09,10.0,SSW,8.1,-,N/A,,Clear,200,2014-04-19 23:15:00
6:35 PM,73.9,48.0,40,30.09,10.0,South,6.9,-,N/A,,Clear,190,2014-04-19 23:35:00
6:55 PM,72.5,49.5,44,30.08,10.0,North,-9999.0,-,N/A,,Clear,0,2014-04-19 23:55:00
7:15 PM,70.5,50.0,48,30.08,10.0,North,-9999.0,-,N/A,,Clear,0,2014-04-20 00:15:00
7:35 PM,69.8,49.8,49,30.08,10.0,Calm,Calm,-,N/A,,Clear,0,2014-04-20 00:35:00
7:55 PM,70.2,49.3,47,30.08,10.0,Calm,Calm,-,N/A,,Clear,0,2014-04-20 00:55:00
8:15 PM,66.9,50.0,54,30.09,10.0,Calm,Calm,-,N/A,,Clear,0,2014-04-20 01:15:00
8:35 PM,65.5,50.4,58,30.09,10.0,North,-9999.0,-,N/A,,Clear,0,2014-04-20 01:35:00
8:55 PM,65.3,51.6,61,30.09,10.0,Calm,Calm,-,N/A,,Clear,0,2014-04-20 01:55:00
9:15 PM,64.0,52.3,66,30.10,10.0,North,-9999.0,-,N/A,,Clear,0,2014-04-20 02:15:00
9:35 PM,61.3,52.9,74,30.11,10.0,Calm,Calm,-,N/A,,Clear,0,2014-04-20 02:35:00
9:55 PM,62.4,52.2,69,30.11,10.0,Calm,Calm,-,N/A,,Clear,0,2014-04-20 02:55:00
10:15 PM,61.2,51.8,71,30.12,10.0,Calm,Calm,-,N/A,,Clear,0,2014-04-20 03:15:00
10:35 PM,61.2,50.9,69,30.12,10.0,Calm,Calm,-,N/A,,Clear,0,2014-04-20 03:35:00
10:55 PM,60.8,50.2,68,30.12,10.0,Calm,Calm,-,N/A,,Clear,0,2014-04-20 03:55:00
11:15 PM,60.8,49.6,67,30.13,10.0,North,-9999.0,-,N/A,,Clear,0,2014-04-20 04:15:00
11:35 PM,59.5,50.9,73,30.13,10.0,Calm,Calm,-,N/A,,Clear,0,2014-04-20 04:35:00
11:55 PM,59.9,50.2,70,30.12,10.0,Calm,Calm,-,N/A,,Clear,0,2014-04-20 04:55:00